TimeEDT,TemperatureF,Dew PointF,Humidity,Sea Level PressureIn,VisibilityMPH,Wind Direction,Wind SpeedMPH,Gust SpeedMPH,PrecipitationIn,Events,Conditions,WindDirDegrees,DateUTC
12:53 AM,68.0,62.1,81,29.84,10.0,South,11.5,-,N/A,,Partly Cloudy,180,2013-05-22 04:53:00
1:53 AM,68.0,62.1,81,29.83,10.0,South,8.1,-,N/A,,Mostly Cloudy,180,2013-05-22 05:53:00
2:53 AM,66.0,61.0,84,29.80,10.0,South,9.2,-,N/A,,Clear,180,2013-05-22 06:53:00
3:53 AM,64.9,60.1,84,29.80,10.0,South,10.4,-,N/A,,Partly Cloudy,190,2013-05-22 07:53:00
4:53 AM,63.0,60.1,90,29.80,10.0,South,8.1,-,N/A,,Partly Cloudy,190,2013-05-22 08:53:00
5:53 AM,64.0,60.1,87,29.81,10.0,SSW,6.9,-,N/A,,Partly Cloudy,200,2013-05-22 09:53:00
6:53 AM,64.0,60.1,87,29.81,10.0,South,9.2,-,N/A,,Clear,170,2013-05-22 10:53:00
7:53 AM,66.0,61.0,84,29.81,10.0,South,10.4,-,N/A,,Scattered Clouds,180,2013-05-22 11:53:00
8:53 AM,69.1,62.1,78,29.81,10.0,South,13.8,-,N/A,,Partly Cloudy,180,2013-05-22 12:53:00
9:18 AM,68.0,60.8,78,29.84,10.0,SSW,12.7,-,N/A,,Mostly Cloudy,200,2013-05-22 13:18:00
9:53 AM,71.1,62.1,73,29.83,10.0,South,13.8,-,N/A,,Overcast,190,2013-05-22 13:53:00
10:39 AM,71.6,62.6,73,29.84,10.0,SW,13.8,19.6,N/A,,Mostly Cloudy,220,2013-05-22 14:39:00
10:50 AM,73.4,62.6,69,29.82,10.0,SSW,13.8,-,N/A,,Scattered Clouds,210,2013-05-22 14:50:00
10:53 AM,73.0,62.1,68,29.81,10.0,SW,12.7,-,N/A,,Scattered Clouds,220,2013-05-22 14:53:00
11:53 AM,73.0,61.0,66,29.81,10.0,South,13.8,-,N/A,,Mostly Cloudy,190,2013-05-22 15:53:00
12:53 PM,73.9,60.1,62,29.80,10.0,SSW,15.0,21.9,N/A,,Partly Cloudy,200,2013-05-22 16:53:00
1:53 PM,77.0,60.1,56,29.79,10.0,SSW,13.8,25.3,N/A,,Scattered Clouds,210,2013-05-22 17:53:00
2:53 PM,77.0,60.1,56,29.78,10.0,SSW,12.7,-,N/A,,Mostly Cloudy,210,2013-05-22 18:53:00
3:53 PM,78.1,62.1,58,29.76,10.0,SSW,16.1,24.2,N/A,,Scattered Clouds,200,2013-05-22 19:53:00
4:53 PM,78.1,61.0,56,29.73,10.0,SSW,15.0,21.9,N/A,,Mostly Cloudy,200,2013-05-22 20:53:00
5:34 PM,71.6,62.6,73,29.76,10.0,WNW,11.5,23.0,N/A,Thunderstorm,Thunderstorm,290,2013-05-22 21:34:00
5:49 PM,71.6,64.4,78,29.76,10.0,WSW,9.2,-,0.01,Rain,Light Rain,240,2013-05-22 21:49:00
5:53 PM,71.1,64.0,78,29.75,10.0,SW,9.2,-,0.01,,Overcast,220,2013-05-22 21:53:00
6:53 PM,72.0,64.9,78,29.74,10.0,SSW,9.2,-,N/A,Thunderstorm,Partly Cloudy,210,2013-05-22 22:53:00
7:22 PM,71.6,62.6,73,29.78,10.0,SW,11.5,-,N/A,,Mostly Cloudy,220,2013-05-22 23:22:00
7:43 PM,69.8,64.4,83,29.78,6.0,SW,6.9,-,0.01,Rain-Thunderstorm,Light Thunderstorms and Rain,220,2013-05-22 23:43:00
7:53 PM,70.0,64.9,84,29.76,5.0,SSW,4.6,-,0.03,Rain-Thunderstorm,Thunderstorms and Rain,200,2013-05-22 23:53:00
8:18 PM,68.0,66.2,94,29.78,7.0,SSW,6.9,-,0.03,Rain-Thunderstorm,Light Rain,210,2013-05-23 00:18:00
8:30 PM,66.2,64.4,94,29.78,5.0,South,10.4,-,0.05,Rain,Light Rain,190,2013-05-23 00:30:00
8:53 PM,64.0,62.1,93,29.77,10.0,South,6.9,-,0.05,,Overcast,170,2013-05-23 00:53:00
9:53 PM,64.9,63.0,93,29.77,10.0,South,5.8,-,N/A,,Scattered Clouds,190,2013-05-23 01:53:00
10:53 PM,64.9,63.0,93,29.78,7.0,SSW,8.1,-,N/A,,Clear,200,2013-05-23 02:53:00
11:53 PM,64.9,63.0,93,29.79,6.0,SSW,6.9,-,N/A,,Clear,200,2013-05-23 03:53:00